Time,TemperatureF,DewpointF,PressureIn,WindDirection,WindDirectionDegrees,WindSpeedMPH,WindSpeedGustMPH,Humidity,HourlyPrecipIn,Conditions,Clouds,dailyrainin,SoftwareType,DateUTC
2013-09-23 00:05:00,50.6,45.9,29.82,N/A,-32768,0.0,0.0,84,0.00,,,0.00,Wunderground v.1.12,2013-09-23 06:05:00,
2013-09-23 00:10:00,50.6,45.9,29.82,N/A,-32768,0.0,0.0,84,0.00,,,0.00,Wunderground v.1.12,2013-09-23 06:10:00,
2013-09-23 00:15:00,50.7,46.0,29.83,N/A,-32768,0.0,0.0,84,0.00,,,0.00,Wunderground v.1.12,2013-09-23 06:15:00,
2013-09-23 00:20:00,50.7,46.0,29.83,N/A,-32768,0.0,0.0,84,0.00,,,0.00,Wunderground v.1.12,2013-09-23 06:20:00,
2013-09-23 00:25:00,50.6,46.3,29.83,N/A,-32768,0.0,0.0,85,0.00,,,0.00,Wunderground v.1.12,2013-09-23 06:25:00,
2013-09-23 00:34:00,50.5,46.5,29.83,N/A,-32768,0.0,0.0,86,0.00,,,0.00,Wunderground v.1.12,2013-09-23 06:34:00,
2013-09-23 00:40:00,50.4,46.4,29.83,N/A,-32768,0.0,0.0,86,0.00,,,0.00,Wunderground v.1.12,2013-09-23 06:40:00,
2013-09-23 00:45:00,50.4,46.7,29.83,N/A,-32768,0.0,0.0,87,0.00,,,0.00,Wunderground v.1.12,2013-09-23 06:45:00,
2013-09-23 00:50:00,50.2,46.8,29.82,N/A,-32768,0.0,0.0,88,0.00,,,0.00,Wunderground v.1.12,2013-09-23 06:50:00,
2013-09-23 00:55:00,50.1,46.7,29.83,N/A,-32768,0.0,0.0,88,0.00,,,0.00,Wunderground v.1.12,2013-09-23 06:55:00,
2013-09-23 01:05:00,50.0,46.9,29.83,N/A,-32768,0.0,0.0,89,0.00,,,0.00,Wunderground v.1.12,2013-09-23 07:05:00,
2013-09-23 01:10:00,49.9,46.8,29.83,N/A,-32768,0.0,0.0,89,0.00,,,0.00,Wunderground v.1.12,2013-09-23 07:10:00,
2013-09-23 01:15:00,50.1,47.0,29.83,N/A,-32768,0.0,0.0,89,0.00,,,0.00,Wunderground v.1.12,2013-09-23 07:15:00,
2013-09-23 01:20:00,50.0,46.9,29.83,N/A,-32768,0.0,0.0,89,0.00,,,0.00,Wunderground v.1.12,2013-09-23 07:20:00,
2013-09-23 01:25:00,50.1,47.0,29.83,N/A,-32768,0.0,0.0,89,0.00,,,0.00,Wunderground v.1.12,2013-09-23 07:25:00,
2013-09-23 01:30:00,50.0,46.9,29.83,N/A,-32768,0.0,0.0,89,0.00,,,0.00,Wunderground v.1.12,2013-09-23 07:30:00,
2013-09-23 01:40:00,49.8,47.0,29.83,N/A,-32768,0.0,0.0,90,0.00,,,0.00,Wunderground v.1.12,2013-09-23 07:40:00,
2013-09-23 01:45:00,49.6,46.8,29.83,N/A,-32768,0.0,0.0,90,0.00,,,0.00,Wunderground v.1.12,2013-09-23 07:45:00,
2013-09-23 01:49:00,49.4,46.6,29.83,N/A,-32768,0.0,0.0,90,0.00,,,0.00,Wunderground v.1.12,2013-09-23 07:49:00,
2013-09-23 01:55:00,49.3,46.2,29.83,N/A,-32768,0.0,0.0,89,0.00,,,0.00,Wunderground v.1.12,2013-09-23 07:55:00,
2013-09-23 02:00:00,49.1,45.7,29.83,N/A,-32768,0.0,0.0,88,0.00,,,0.00,Wunderground v.1.12,2013-09-23 08:00:00,
2013-09-23 02:10:00,49.3,45.9,29.84,N/A,-32768,0.0,0.0,88,0.00,,,0.00,Wunderground v.1.12,2013-09-23 08:10:00,
2013-09-23 02:15:00,49.3,45.9,29.84,N/A,-32768,0.0,0.0,88,0.00,,,0.00,Wunderground v.1.12,2013-09-23 08:15:00,
2013-09-23 02:20:00,49.3,46.2,29.84,N/A,-32768,0.0,0.0,89,0.00,,,0.00,Wunderground v.1.12,2013-09-23 08:20:00,
2013-09-23 02:25:00,49.2,46.1,29.84,N/A,-32768,0.0,0.0,89,0.00,,,0.00,Wunderground v.1.12,2013-09-23 08:25:00,
2013-09-23 02:30:00,49.2,46.4,29.84,N/A,-32768,0.0,0.0,90,0.00,,,0.00,Wunderground v.1.12,2013-09-23 08:30:00,
2013-09-23 02:40:00,48.9,47.0,29.84,N/A,-32768,0.0,0.0,93,0.00,,,0.00,Wunderground v.1.12,2013-09-23 08:40:00,
2013-09-23 02:45:00,48.7,47.1,29.84,N/A,-32768,0.0,0.0,94,0.00,,,0.00,Wunderground v.1.12,2013-09-23 08:45:00,
2013-09-23 02:50:00,48.3,46.7,29.85,N/A,-32768,0.0,0.0,94,0.00,,,0.00,Wunderground v.1.12,2013-09-23 08:50:00,
2013-09-23 02:54:00,47.9,46.5,29.85,N/A,-32768,0.0,0.0,95,0.00,,,0.00,Wunderground v.1.12,2013-09-23 08:54:00,
2013-09-23 03:00:00,48.1,47.0,29.85,N/A,-32768,0.0,0.0,96,0.00,,,0.00,Wunderground v.1.12,2013-09-23 09:00:00,
2013-09-23 03:10:00,48.1,47.0,29.85,N/A,-32768,0.0,0.0,96,0.00,,,0.00,Wunderground v.1.12,2013-09-23 09:10:00,
2013-09-23 03:15:00,47.9,46.8,29.85,N/A,-32768,0.0,0.0,96,0.00,,,0.00,Wunderground v.1.12,2013-09-23 09:15:00,
2013-09-23 03:20:00,47.5,46.4,29.85,N/A,-32768,0.0,0.0,96,0.00,,,0.00,Wunderground v.1.12,2013-09-23 09:20:00,
2013-09-23 03:25:00,47.4,46.3,29.85,N/A,-32768,0.0,0.0,96,0.00,,,0.00,Wunderground v.1.12,2013-09-23 09:25:00,
2013-09-23 03:30:00,47.5,46.4,29.85,N/A,-32768,0.0,0.0,96,0.00,,,0.00,Wunderground v.1.12,2013-09-23 09:30:00,
2013-09-23 03:35:00,47.2,46.1,29.86,N/A,-32768,0.0,0.0,96,0.00,,,0.00,Wunderground v.1.12,2013-09-23 09:35:00,
2013-09-23 03:45:00,47.5,47.0,29.86,N/A,-32768,0.0,0.0,98,0.00,,,0.00,Wunderground v.1.12,2013-09-23 09:45:00,
2013-09-23 03:50:00,47.4,46.9,29.86,N/A,-32768,0.0,0.0,98,0.00,,,0.00,Wunderground v.1.12,2013-09-23 09:50:00,
2013-09-23 03:54:00,47.6,47.1,29.86,N/A,-32768,0.0,0.0,98,0.00,,,0.00,Wunderground v.1.12,2013-09-23 09:54:00,
2013-09-23 04:00:00,47.4,46.9,29.86,N/A,-32768,0.0,0.0,98,0.00,,,0.00,Wunderground v.1.12,2013-09-23 10:00:00,
2013-09-23 04:05:00,47.4,46.9,29.86,N/A,-32768,0.0,0.0,98,0.00,,,0.00,Wunderground v.1.12,2013-09-23 10:05:00,
2013-09-23 04:15:00,47.5,47.0,29.86,N/A,-32768,0.0,0.0,98,0.00,,,0.00,Wunderground v.1.12,2013-09-23 10:15:00,
2013-09-23 04:20:00,47.4,46.9,29.87,N/A,-32768,0.0,0.0,98,0.00,,,0.00,Wunderground v.1.12,2013-09-23 10:20:00,
2013-09-23 04:25:00,47.7,47.2,29.87,N/A,-32768,0.0,0.0,98,0.00,,,0.00,Wunderground v.1.12,2013-09-23 10:25:00,
2013-09-23 04:30:00,47.5,47.2,29.87,N/A,-32768,0.0,0.0,99,0.00,,,0.00,Wunderground v.1.12,2013-09-23 10:30:00,
2013-09-23 04:35:00,47.4,47.1,29.88,N/A,-32768,0.0,0.0,99,0.00,,,0.00,Wunderground v.1.12,2013-09-23 10:35:00,
2013-09-23 04:45:00,47.5,47.2,29.88,N/A,-32768,0.0,0.0,99,0.00,,,0.00,Wunderground v.1.12,2013-09-23 10:45:00,
2013-09-23 04:50:00,47.4,47.1,29.88,N/A,-32768,0.0,0.0,99,0.00,,,0.00,Wunderground v.1.12,2013-09-23 10:50:00,
2013-09-23 04:54:00,47.7,47.4,29.88,N/A,-32768,0.0,0.0,99,0.00,,,0.00,Wunderground v.1.12,2013-09-23 10:54:00,
2013-09-23 05:00:00,47.2,46.9,29.88,N/A,-32768,0.0,0.0,99,0.00,,,0.00,Wunderground v.1.12,2013-09-23 11:00:00,
2013-09-23 05:05:00,47.2,46.9,29.88,N/A,-32768,0.0,0.0,99,0.00,,,0.00,Wunderground v.1.12,2013-09-23 11:05:00,
2013-09-23 05:15:00,46.8,46.3,29.88,N/A,-32768,0.0,0.0,98,0.00,,,0.00,Wunderground v.1.12,2013-09-23 11:15:00,
2013-09-23 05:20:00,46.7,46.2,29.88,N/A,-32768,0.0,0.0,98,0.00,,,0.00,Wunderground v.1.12,2013-09-23 11:20:00,
2013-09-23 05:25:00,46.7,46.2,29.88,N/A,-32768,0.0,0.0,98,0.00,,,0.00,Wunderground v.1.12,2013-09-23 11:25:00,
2013-09-23 05:30:00,46.6,45.8,29.88,N/A,-32768,0.0,0.0,97,0.00,,,0.00,Wunderground v.1.12,2013-09-23 11:30:00,
2013-09-23 05:35:00,46.6,45.8,29.88,N/A,-32768,0.0,0.0,97,0.00,,,0.00,Wunderground v.1.12,2013-09-23 11:35:00,
2013-09-23 05:40:00,46.3,45.5,29.88,N/A,-32768,0.0,0.0,97,0.00,,,0.00,Wunderground v.1.12,2013-09-23 11:40:00,
2013-09-23 05:50:00,46.3,45.2,29.88,N/A,-32768,0.0,0.0,96,0.00,,,0.00,Wunderground v.1.12,2013-09-23 11:50:00,
2013-09-23 05:54:00,46.2,45.1,29.89,N/A,-32768,0.0,0.0,96,0.00,,,0.00,Wunderground v.1.12,2013-09-23 11:54:00,
2013-09-23 06:00:00,45.9,44.8,29.89,N/A,-32768,0.0,0.0,96,0.00,,,0.00,Wunderground v.1.12,2013-09-23 12:00:00,
2013-09-23 06:05:00,45.9,44.8,29.89,N/A,-32768,0.0,0.0,96,0.00,,,0.00,Wunderground v.1.12,2013-09-23 12:05:00,
2013-09-23 06:10:00,45.9,44.8,29.89,N/A,-32768,0.0,0.0,96,0.00,,,0.00,Wunderground v.1.12,2013-09-23 12:10:00,
2013-09-23 06:20:00,45.8,44.7,29.90,N/A,-32768,0.0,0.0,96,0.00,,,0.00,Wunderground v.1.12,2013-09-23 12:20:00,
2013-09-23 06:25:00,45.4,44.1,29.90,N/A,-32768,0.0,0.0,95,0.00,,,0.00,Wunderground v.1.12,2013-09-23 12:25:00,
2013-09-23 06:30:00,45.4,44.3,29.90,N/A,-32768,0.0,0.0,96,0.00,,,0.00,Wunderground v.1.12,2013-09-23 12:30:00,
2013-09-23 06:35:00,45.7,44.4,29.92,N/A,-737280,0.0,2.0,95,0.00,,,0.00,Wunderground v.1.12,2013-09-23 12:35:00,
2013-09-23 06:40:00,45.1,43.8,29.91,N/A,-32768,0.0,0.0,95,0.00,,,0.00,Wunderground v.1.12,2013-09-23 12:40:00,
2013-09-23 06:50:00,45.0,43.7,29.91,N/A,-32768,0.0,0.0,95,0.00,,,0.00,Wunderground v.1.12,2013-09-23 12:50:00,
2013-09-23 06:55:00,44.6,43.3,29.91,N/A,-32768,0.0,0.0,95,0.00,,,0.00,Wunderground v.1.12,2013-09-23 12:55:00,
2013-09-23 07:00:00,44.8,43.5,29.92,N/A,-32768,0.0,0.0,95,0.00,,,0.00,Wunderground v.1.12,2013-09-23 13:00:00,
2013-09-23 07:05:00,44.8,43.7,29.92,N/A,-32768,0.0,0.0,96,0.00,,,0.00,Wunderground v.1.12,2013-09-23 13:05:00,
2013-09-23 07:09:00,44.9,43.8,29.92,N/A,-32768,0.0,0.0,96,0.00,,,0.00,Wunderground v.1.12,2013-09-23 13:09:00,
2013-09-23 07:15:00,45.1,44.0,29.93,N/A,-32768,0.0,0.0,96,0.00,,,0.00,Wunderground v.1.12,2013-09-23 13:15:00,
2013-09-23 07:20:00,45.3,44.5,29.93,N/A,-32768,0.0,0.0,97,0.00,,,0.00,Wunderground v.1.12,2013-09-23 13:20:00,
2013-09-23 07:30:00,45.4,44.6,29.93,N/A,-32768,0.0,0.0,97,0.00,,,0.00,Wunderground v.1.12,2013-09-23 13:30:00,
2013-09-23 07:35:00,45.6,44.5,29.93,N/A,-32768,0.0,0.0,96,0.00,,,0.00,Wunderground v.1.12,2013-09-23 13:35:00,
2013-09-23 07:40:00,45.3,44.2,29.93,N/A,-32768,0.0,0.0,96,0.00,,,0.00,Wunderground v.1.12,2013-09-23 13:40:00,
2013-09-23 07:50:00,45.4,44.1,29.93,N/A,-32768,0.0,0.0,95,0.00,,,0.00,Wunderground v.1.12,2013-09-23 13:50:00,
2013-09-23 07:55:00,45.2,43.9,29.93,N/A,-32768,0.0,0.0,95,0.00,,,0.00,Wunderground v.1.12,2013-09-23 13:55:00,
2013-09-23 08:00:00,45.6,44.3,29.93,N/A,-32768,1.0,1.0,95,0.00,,,0.00,Wunderground v.1.12,2013-09-23 14:00:00,
2013-09-23 08:05:00,45.8,44.2,29.93,N/A,-32768,0.0,0.0,94,0.00,,,0.00,Wunderground v.1.12,2013-09-23 14:05:00,
2013-09-23 08:10:00,46.8,44.9,29.92,N/A,-32768,0.0,0.0,93,0.00,,,0.00,Wunderground v.1.12,2013-09-23 14:10:00,
2013-09-23 08:15:00,47.5,45.0,29.93,N/A,-32768,3.0,3.0,91,0.00,,,0.00,Wunderground v.1.12,2013-09-23 14:15:00,
2013-09-23 08:20:00,48.2,45.1,29.93,N/A,-32768,0.0,0.0,89,0.00,,,0.00,Wunderground v.1.12,2013-09-23 14:20:00,
2013-09-23 08:25:00,48.9,45.5,29.94,N/A,-32768,1.0,1.0,88,0.00,,,0.00,Wunderground v.1.12,2013-09-23 14:25:00,
2013-09-23 08:30:00,49.4,45.4,29.94,N/A,-32768,0.0,0.0,86,0.00,,,0.00,Wunderground v.1.12,2013-09-23 14:30:00,
2013-09-23 08:35:00,49.7,45.7,29.94,N/A,-32768,0.0,0.0,86,0.00,,,0.00,Wunderground v.1.12,2013-09-23 14:35:00,
2013-09-23 08:40:00,50.0,46.0,29.94,N/A,-32768,1.0,1.0,86,0.00,,,0.00,Wunderground v.1.12,2013-09-23 14:40:00,
2013-09-23 08:45:00,50.3,46.0,29.94,N/A,-32768,0.0,0.0,85,0.00,,,0.00,Wunderground v.1.12,2013-09-23 14:45:00,
2013-09-23 08:55:00,50.8,45.8,29.95,N/A,-32768,0.0,0.0,83,0.00,,,0.00,Wunderground v.1.12,2013-09-23 14:55:00,
2013-09-23 09:00:00,50.9,45.9,29.95,N/A,-32768,0.0,0.0,83,0.00,,,0.00,Wunderground v.1.12,2013-09-23 15:00:00,
2013-09-23 09:05:00,51.1,46.1,29.96,N/A,-32768,0.0,0.0,83,0.00,,,0.00,Wunderground v.1.12,2013-09-23 15:05:00,
2013-09-23 09:10:00,51.0,46.0,29.96,N/A,-32768,0.0,0.0,83,0.00,,,0.00,Wunderground v.1.12,2013-09-23 15:10:00,
2013-09-23 09:20:00,51.2,45.9,29.97,N/A,-32768,0.0,0.0,82,0.00,,,0.00,Wunderground v.1.12,2013-09-23 15:20:00,
2013-09-23 09:30:00,52.5,46.5,29.97,N/A,-32768,0.0,0.0,80,0.00,,,0.00,Wunderground v.1.12,2013-09-23 15:30:00,
2013-09-23 09:35:00,53.0,46.7,29.97,N/A,-32768,0.0,0.0,79,0.00,,,0.00,Wunderground v.1.12,2013-09-23 15:35:00,
2013-09-23 09:45:00,54.0,47.0,29.98,N/A,-32768,0.0,0.0,77,0.00,,,0.00,Wunderground v.1.12,2013-09-23 15:45:00,
2013-09-23 09:50:00,54.5,47.4,29.98,N/A,-32768,0.0,0.0,77,0.00,,,0.00,Wunderground v.1.12,2013-09-23 15:50:00,
2013-09-23 10:00:00,56.0,47.5,29.98,N/A,-32768,2.0,2.0,73,0.00,,,0.00,Wunderground v.1.12,2013-09-23 16:00:00,
2013-09-23 10:05:00,54.1,45.6,29.99,N/A,-737280,2.0,13.0,73,0.00,,,0.00,Wunderground v.1.12,2013-09-23 16:05:00,
2013-09-23 10:10:00,57.2,48.3,29.98,N/A,-32768,0.0,0.0,72,0.00,,,0.00,Wunderground v.1.12,2013-09-23 16:10:00,
2013-09-23 10:20:00,58.1,48.4,29.98,N/A,-32768,1.0,1.0,70,0.00,,,0.00,Wunderground v.1.12,2013-09-23 16:20:00,
2013-09-23 10:30:00,58.7,48.6,29.99,N/A,-32768,0.0,0.0,69,0.00,,,0.00,Wunderground v.1.12,2013-09-23 16:30:00,
2013-09-23 10:35:00,58.3,48.9,29.99,N/A,-32768,2.0,2.0,71,0.00,,,0.00,Wunderground v.1.12,2013-09-23 16:35:00,
2013-09-23 10:40:00,58.7,48.6,29.99,N/A,-32768,1.0,1.0,69,0.00,,,0.00,Wunderground v.1.12,2013-09-23 16:40:00,
2013-09-23 10:45:00,59.4,49.6,29.99,N/A,-32768,0.0,0.0,70,0.00,,,0.00,Wunderground v.1.12,2013-09-23 16:45:00,
2013-09-23 10:50:00,59.4,49.2,29.99,N/A,-32768,0.0,0.0,69,0.00,,,0.00,Wunderground v.1.12,2013-09-23 16:50:00,
2013-09-23 10:55:00,59.4,50.0,29.99,N/A,-32768,0.0,0.0,71,0.00,,,0.00,Wunderground v.1.12,2013-09-23 16:55:00,
2013-09-23 11:05:00,58.7,48.6,29.99,N/A,-32768,0.0,0.0,69,0.00,,,0.00,Wunderground v.1.12,2013-09-23 17:05:00,
2013-09-23 11:10:00,57.9,48.6,29.99,N/A,-32768,0.0,0.0,71,0.00,,,0.00,Wunderground v.1.12,2013-09-23 17:10:00,
2013-09-23 11:15:00,57.1,48.2,30.00,N/A,-32768,0.0,0.0,72,0.00,,,0.00,Wunderground v.1.12,2013-09-23 17:15:00,
2013-09-23 11:20:00,56.3,47.8,30.00,N/A,-32768,0.0,0.0,73,0.00,,,0.00,Wunderground v.1.12,2013-09-23 17:20:00,
2013-09-23 11:25:00,55.7,47.5,30.00,N/A,-32768,1.0,1.0,74,0.00,,,0.00,Wunderground v.1.12,2013-09-23 17:25:00,
2013-09-23 11:35:00,54.6,48.2,30.00,N/A,-32768,0.0,0.0,79,0.00,,,0.00,Wunderground v.1.12,2013-09-23 17:35:00,
2013-09-23 11:40:00,54.1,48.1,30.00,N/A,-32768,0.0,0.0,80,0.00,,,0.00,Wunderground v.1.12,2013-09-23 17:40:00,
2013-09-23 11:45:00,54.0,48.0,30.01,N/A,-32768,0.0,0.0,80,0.00,,,0.00,Wunderground v.1.12,2013-09-23 17:45:00,
2013-09-23 11:50:00,53.9,47.5,30.01,N/A,-32768,0.0,0.0,79,0.00,,,0.00,Wunderground v.1.12,2013-09-23 17:50:00,
2013-09-23 11:55:00,53.6,47.6,30.01,N/A,-32768,0.0,0.0,80,0.00,,,0.00,Wunderground v.1.12,2013-09-23 17:55:00,
2013-09-23 12:05:00,53.6,47.6,30.01,N/A,-32768,0.0,0.0,80,0.00,,,0.00,Wunderground v.1.12,2013-09-23 18:05:00,
2013-09-23 12:09:00,53.9,48.2,30.00,N/A,-32768,0.0,0.0,81,0.00,,,0.00,Wunderground v.1.12,2013-09-23 18:09:00,
2013-09-23 12:15:00,53.9,48.2,30.01,N/A,-32768,0.0,0.0,81,0.00,,,0.00,Wunderground v.1.12,2013-09-23 18:15:00,
2013-09-23 12:20:00,53.7,48.3,30.01,N/A,-32768,0.0,0.0,82,0.00,,,0.00,Wunderground v.1.12,2013-09-23 18:20:00,
2013-09-23 12:25:00,53.7,49.0,30.00,N/A,-32768,0.0,0.0,84,0.00,,,0.00,Wunderground v.1.12,2013-09-23 18:25:00,
2013-09-23 12:35:00,54.8,49.7,30.00,N/A,-32768,0.0,0.0,83,0.00,,,0.00,Wunderground v.1.12,2013-09-23 18:35:00,
2013-09-23 12:40:00,55.1,50.0,30.00,N/A,-32768,0.0,0.0,83,0.00,,,0.00,Wunderground v.1.12,2013-09-23 18:40:00,
2013-09-23 12:45:00,55.3,50.5,30.00,N/A,-32768,0.0,0.0,84,0.00,,,0.00,Wunderground v.1.12,2013-09-23 18:45:00,
2013-09-23 12:50:00,55.0,50.3,30.01,N/A,-32768,0.0,0.0,84,0.00,,,0.00,Wunderground v.1.12,2013-09-23 18:50:00,
2013-09-23 12:55:00,54.5,50.1,30.01,N/A,-32768,0.0,0.0,85,0.00,,,0.00,Wunderground v.1.12,2013-09-23 18:55:00,
2013-09-23 13:00:00,54.6,50.8,30.01,N/A,-32768,0.0,0.0,87,0.00,,,0.00,Wunderground v.1.12,2013-09-23 19:00:00,
2013-09-23 13:10:00,54.8,51.0,30.00,N/A,-32768,0.0,0.0,87,0.00,,,0.00,Wunderground v.1.12,2013-09-23 19:10:00,
2013-09-23 13:14:00,54.9,50.5,30.00,N/A,-32768,3.0,3.0,85,0.00,,,0.00,Wunderground v.1.12,2013-09-23 19:14:00,
2013-09-23 13:20:00,55.3,49.9,30.00,N/A,-32768,0.0,0.0,82,0.00,,,0.00,Wunderground v.1.12,2013-09-23 19:20:00,
2013-09-23 13:25:00,55.5,50.1,30.00,N/A,-32768,0.0,0.0,82,0.00,,,0.00,Wunderground v.1.12,2013-09-23 19:25:00,
2013-09-23 13:30:00,55.6,49.2,30.00,N/A,-32768,0.0,0.0,79,0.00,,,0.00,Wunderground v.1.12,2013-09-23 19:30:00,
2013-09-23 13:40:00,56.3,49.2,30.00,N/A,-32768,0.0,0.0,77,0.00,,,0.00,Wunderground v.1.12,2013-09-23 19:40:00,
2013-09-23 13:45:00,56.5,49.0,30.00,N/A,-32768,5.0,5.0,76,0.00,,,0.00,Wunderground v.1.12,2013-09-23 19:45:00,
2013-09-23 13:50:00,56.3,48.5,30.00,N/A,-32768,0.0,0.0,75,0.00,,,0.00,Wunderground v.1.12,2013-09-23 19:50:00,
2013-09-23 13:55:00,56.1,47.9,30.00,N/A,-32768,1.0,1.0,74,0.00,,,0.00,Wunderground v.1.12,2013-09-23 19:55:00,
2013-09-23 14:00:00,56.1,47.9,30.00,N/A,-32768,1.0,1.0,74,0.00,,,0.00,Wunderground v.1.12,2013-09-23 20:00:00,
2013-09-23 14:10:00,55.9,47.4,30.00,N/A,-32768,2.0,2.0,73,0.00,,,0.00,Wunderground v.1.12,2013-09-23 20:10:00,
2013-09-23 14:14:00,55.9,47.7,30.00,N/A,-32768,0.0,0.0,74,0.00,,,0.00,Wunderground v.1.12,2013-09-23 20:14:00,
2013-09-23 14:20:00,56.2,47.7,29.99,N/A,-32768,0.0,0.0,73,0.00,,,0.00,Wunderground v.1.12,2013-09-23 20:20:00,
2013-09-23 14:25:00,56.5,47.2,29.99,N/A,-32768,0.0,0.0,71,0.00,,,0.00,Wunderground v.1.12,2013-09-23 20:25:00,
2013-09-23 14:30:00,56.8,47.5,29.99,N/A,-32768,0.0,0.0,71,0.00,,,0.00,Wunderground v.1.12,2013-09-23 20:30:00,
2013-09-23 14:40:00,56.8,47.5,29.99,N/A,-32768,11.0,11.0,71,0.00,,,0.00,Wunderground v.1.12,2013-09-23 20:40:00,
2013-09-23 14:45:00,56.9,47.2,30.00,N/A,-32768,1.0,1.0,70,0.00,,,0.00,Wunderground v.1.12,2013-09-23 20:45:00,
2013-09-23 14:50:00,57.1,46.6,29.99,N/A,-32768,0.0,0.0,68,0.00,,,0.00,Wunderground v.1.12,2013-09-23 20:50:00,
2013-09-23 14:55:00,57.1,47.0,29.99,N/A,-32768,0.0,0.0,69,0.00,,,0.00,Wunderground v.1.12,2013-09-23 20:55:00,
2013-09-23 15:00:00,57.1,47.0,30.00,N/A,-32768,5.0,5.0,69,0.00,,,0.00,Wunderground v.1.12,2013-09-23 21:00:00,
2013-09-23 15:05:00,57.0,47.3,29.99,N/A,-32768,0.0,0.0,70,0.00,,,0.00,Wunderground v.1.12,2013-09-23 21:05:00,
2013-09-23 15:15:00,56.7,47.0,30.00,N/A,-32768,0.0,0.0,70,0.00,,,0.00,Wunderground v.1.12,2013-09-23 21:15:00,
2013-09-23 15:20:00,56.5,47.2,30.00,N/A,-32768,1.0,1.0,71,0.00,,,0.00,Wunderground v.1.12,2013-09-23 21:20:00,
2013-09-23 15:24:00,56.5,47.6,30.00,N/A,-32768,0.0,0.0,72,0.00,,,0.00,Wunderground v.1.12,2013-09-23 21:24:00,
2013-09-23 15:30:00,56.4,47.9,30.00,N/A,-32768,0.0,0.0,73,0.00,,,0.00,Wunderground v.1.12,2013-09-23 21:30:00,
2013-09-23 15:35:00,56.3,47.4,30.00,N/A,-32768,0.0,0.0,72,0.00,,,0.00,Wunderground v.1.12,2013-09-23 21:35:00,
2013-09-23 15:45:00,56.5,47.6,30.00,N/A,-32768,0.0,0.0,72,0.00,,,0.00,Wunderground v.1.12,2013-09-23 21:45:00,
2013-09-23 15:50:00,56.5,47.9,30.00,N/A,-32768,0.0,0.0,73,0.00,,,0.00,Wunderground v.1.12,2013-09-23 21:50:00,
2013-09-23 15:55:00,56.2,48.7,30.01,N/A,-32768,0.0,0.0,76,0.00,,,0.00,Wunderground v.1.12,2013-09-23 21:55:00,
2013-09-23 16:00:00,55.8,48.7,30.01,N/A,-32768,0.0,0.0,77,0.00,,,0.00,Wunderground v.1.12,2013-09-23 22:00:00,
2013-09-23 16:05:00,55.2,48.1,30.01,N/A,-32768,0.0,0.0,77,0.00,,,0.00,Wunderground v.1.12,2013-09-23 22:05:00,
2013-09-23 16:15:00,54.5,47.4,30.02,N/A,-32768,1.0,1.0,77,0.00,,,0.00,Wunderground v.1.12,2013-09-23 22:15:00,
2013-09-23 16:20:00,54.2,48.2,30.02,N/A,-32768,2.0,2.0,80,0.00,,,0.00,Wunderground v.1.12,2013-09-23 22:20:00,
2013-09-23 16:24:00,54.0,48.3,30.02,N/A,-32768,0.0,0.0,81,0.00,,,0.00,Wunderground v.1.12,2013-09-23 22:24:00,
2013-09-23 16:30:00,53.9,48.2,30.02,N/A,-32768,0.0,0.0,81,0.00,,,0.00,Wunderground v.1.12,2013-09-23 22:30:00,
2013-09-23 16:35:00,54.6,48.9,30.03,N/A,-737280,0.0,6.0,81,0.00,,,0.00,Wunderground v.1.12,2013-09-23 22:35:00,
2013-09-23 16:45:00,53.6,47.2,30.02,N/A,-32768,0.0,0.0,79,0.00,,,0.00,Wunderground v.1.12,2013-09-23 22:45:00,
2013-09-23 16:50:00,53.6,47.2,30.02,N/A,-32768,0.0,0.0,79,0.00,,,0.00,Wunderground v.1.12,2013-09-23 22:50:00,
2013-09-23 16:55:00,53.6,46.9,30.02,N/A,-32768,0.0,0.0,78,0.00,,,0.00,Wunderground v.1.12,2013-09-23 22:55:00,
2013-09-23 17:00:00,53.6,46.6,30.02,N/A,-32768,0.0,0.0,77,0.00,,,0.00,Wunderground v.1.12,2013-09-23 23:00:00,
2013-09-23 17:05:00,53.6,46.6,30.02,N/A,-32768,0.0,0.0,77,0.00,,,0.00,Wunderground v.1.12,2013-09-23 23:05:00,
2013-09-23 17:10:00,53.7,46.7,30.01,N/A,-32768,0.0,0.0,77,0.00,,,0.00,Wunderground v.1.12,2013-09-23 23:10:00,
2013-09-23 17:20:00,53.8,46.8,30.02,N/A,-32768,0.0,0.0,77,0.00,,,0.00,Wunderground v.1.12,2013-09-23 23:20:00,
2013-09-23 17:25:00,53.6,46.2,30.02,N/A,-32768,0.0,0.0,76,0.00,,,0.00,Wunderground v.1.12,2013-09-23 23:25:00,
2013-09-23 17:30:00,53.5,46.5,30.02,N/A,-32768,0.0,0.0,77,0.00,,,0.00,Wunderground v.1.12,2013-09-23 23:30:00,
2013-09-23 17:35:00,53.5,46.5,30.02,N/A,-32768,0.0,0.0,77,0.00,,,0.00,Wunderground v.1.12,2013-09-23 23:35:00,
2013-09-23 17:40:00,53.4,46.7,30.03,N/A,-32768,0.0,0.0,78,0.00,,,0.00,Wunderground v.1.12,2013-09-23 23:40:00,
2013-09-23 17:45:00,53.1,47.4,30.03,N/A,-32768,0.0,0.0,81,0.00,,,0.00,Wunderground v.1.12,2013-09-23 23:45:00,
2013-09-23 17:50:00,53.1,47.4,30.03,N/A,-32768,0.0,0.0,81,0.00,,,0.00,Wunderground v.1.12,2013-09-23 23:50:00,
2013-09-23 17:55:00,53.0,47.3,30.03,N/A,-32768,0.0,0.0,81,0.00,,,0.00,Wunderground v.1.12,2013-09-23 23:55:00,
2013-09-23 18:00:00,52.8,46.8,30.03,N/A,-32768,0.0,0.0,80,0.00,,,0.00,Wunderground v.1.12,2013-09-24 00:00:00,
2013-09-23 18:05:00,52.7,46.7,30.04,N/A,-32768,0.0,0.0,80,0.00,,,0.00,Wunderground v.1.12,2013-09-24 00:05:00,
2013-09-23 18:15:00,52.6,46.9,30.04,N/A,-32768,0.0,0.0,81,0.00,,,0.00,Wunderground v.1.12,2013-09-24 00:15:00,
2013-09-23 18:20:00,52.5,47.2,30.04,N/A,-32768,0.0,0.0,82,0.00,,,0.00,Wunderground v.1.12,2013-09-24 00:20:00,
2013-09-23 18:25:00,52.1,47.1,30.04,N/A,-32768,0.0,0.0,83,0.00,,,0.00,Wunderground v.1.12,2013-09-24 00:25:00,
2013-09-23 18:30:00,51.8,47.1,30.04,N/A,-32768,0.0,0.0,84,0.00,,,0.00,Wunderground v.1.12,2013-09-24 00:30:00,
2013-09-23 18:35:00,51.5,47.1,30.04,N/A,-32768,0.0,0.0,85,0.00,,,0.00,Wunderground v.1.12,2013-09-24 00:35:00,
2013-09-23 18:40:00,51.3,47.3,30.04,N/A,-32768,0.0,0.0,86,0.00,,,0.00,Wunderground v.1.12,2013-09-24 00:40:00,
2013-09-23 18:45:00,51.1,47.1,30.04,N/A,-32768,0.0,0.0,86,0.00,,,0.00,Wunderground v.1.12,2013-09-24 00:45:00,
2013-09-23 18:50:00,51.0,47.0,30.04,N/A,-32768,4.0,4.0,86,0.00,,,0.00,Wunderground v.1.12,2013-09-24 00:50:00,
2013-09-23 18:55:00,50.8,46.8,30.04,N/A,-32768,0.0,0.0,86,0.00,,,0.00,Wunderground v.1.12,2013-09-24 00:55:00,
2013-09-23 19:00:00,50.8,46.8,30.04,N/A,-32768,0.0,0.0,86,0.00,,,0.00,Wunderground v.1.12,2013-09-24 01:00:00,
2013-09-23 19:05:00,50.8,46.5,30.05,N/A,-32768,0.0,0.0,85,0.00,,,0.00,Wunderground v.1.12,2013-09-24 01:05:00,
2013-09-23 19:15:00,50.7,47.0,30.05,N/A,-32768,0.0,0.0,87,0.00,,,0.00,Wunderground v.1.12,2013-09-24 01:15:00,
2013-09-23 19:25:00,50.5,47.1,30.05,N/A,-32768,0.0,0.0,88,0.00,,,0.00,Wunderground v.1.12,2013-09-24 01:25:00,
2013-09-23 19:35:00,50.2,47.1,30.05,N/A,-32768,0.0,0.0,89,0.00,,,0.00,Wunderground v.1.12,2013-09-24 01:35:00,
2013-09-23 19:45:00,49.9,47.1,30.05,N/A,-32768,0.0,0.0,90,0.00,,,0.00,Wunderground v.1.12,2013-09-24 01:45:00,
2013-09-23 19:50:00,49.9,47.1,30.05,N/A,-32768,0.0,0.0,90,0.00,,,0.00,Wunderground v.1.12,2013-09-24 01:50:00,
2013-09-23 19:55:00,49.7,46.9,30.05,N/A,-32768,0.0,0.0,90,0.00,,,0.00,Wunderground v.1.12,2013-09-24 01:55:00,
2013-09-23 20:00:00,49.6,46.8,30.05,N/A,-32768,0.0,0.0,90,0.00,,,0.00,Wunderground v.1.12,2013-09-24 02:00:00,
2013-09-23 20:05:00,49.6,47.4,30.05,N/A,-32768,0.0,0.0,92,0.00,,,0.00,Wunderground v.1.12,2013-09-24 02:05:00,
2013-09-23 20:10:00,49.4,47.2,30.05,N/A,-32768,0.0,0.0,92,0.00,,,0.00,Wunderground v.1.12,2013-09-24 02:10:00,
2013-09-23 20:15:00,49.3,46.8,30.05,N/A,-32768,0.0,0.0,91,0.00,,,0.00,Wunderground v.1.12,2013-09-24 02:15:00,
2013-09-23 20:25:00,49.0,46.8,30.05,N/A,-32768,0.0,0.0,92,0.00,,,0.00,Wunderground v.1.12,2013-09-24 02:25:00,
2013-09-23 20:35:00,48.7,46.5,30.06,N/A,-32768,0.0,0.0,92,0.00,,,0.00,Wunderground v.1.12,2013-09-24 02:35:00,
2013-09-23 20:40:00,48.7,46.8,30.06,N/A,-32768,0.0,0.0,93,0.00,,,0.00,Wunderground v.1.12,2013-09-24 02:40:00,
2013-09-23 20:45:00,48.7,46.8,30.06,N/A,-32768,0.0,0.0,93,0.00,,,0.00,Wunderground v.1.12,2013-09-24 02:45:00,
2013-09-23 20:50:00,48.7,47.1,30.06,N/A,-32768,0.0,0.0,94,0.00,,,0.00,Wunderground v.1.12,2013-09-24 02:50:00,
2013-09-23 20:55:00,48.7,47.1,30.06,N/A,-32768,0.0,0.0,94,0.00,,,0.00,Wunderground v.1.12,2013-09-24 02:55:00,
2013-09-23 21:00:00,48.5,46.9,30.06,N/A,-32768,0.0,0.0,94,0.00,,,0.00,Wunderground v.1.12,2013-09-24 03:00:00,
2013-09-23 21:05:00,48.4,46.8,30.06,N/A,-32768,0.0,0.0,94,0.00,,,0.00,Wunderground v.1.12,2013-09-24 03:05:00,
2013-09-23 21:10:00,48.5,46.9,30.06,N/A,-32768,0.0,0.0,94,0.00,,,0.00,Wunderground v.1.12,2013-09-24 03:10:00,
2013-09-23 21:15:00,48.2,46.6,30.06,N/A,-32768,0.0,0.0,94,0.00,,,0.00,Wunderground v.1.12,2013-09-24 03:15:00,
2013-09-23 21:20:00,48.0,46.4,30.06,N/A,-32768,0.0,0.0,94,0.00,,,0.00,Wunderground v.1.12,2013-09-24 03:20:00,
2013-09-23 21:30:00,47.4,45.8,30.06,N/A,-32768,0.0,0.0,94,0.00,,,0.00,Wunderground v.1.12,2013-09-24 03:30:00,
2013-09-23 21:40:00,47.3,45.9,30.06,N/A,-32768,0.0,0.0,95,0.00,,,0.00,Wunderground v.1.12,2013-09-24 03:40:00,
2013-09-23 21:45:00,47.1,45.7,30.06,N/A,-32768,0.0,0.0,95,0.00,,,0.00,Wunderground v.1.12,2013-09-24 03:45:00,
2013-09-23 21:50:00,47.1,45.7,30.06,N/A,-32768,0.0,0.0,95,0.00,,,0.00,Wunderground v.1.12,2013-09-24 03:50:00,
2013-09-23 22:00:00,46.9,45.8,30.06,N/A,-32768,0.0,0.0,96,0.00,,,0.00,Wunderground v.1.12,2013-09-24 04:00:00,
2013-09-23 22:05:00,47.2,46.1,30.07,N/A,-737280,0.0,0.0,96,0.00,,,0.00,Wunderground v.1.12,2013-09-24 04:05:00,
2013-09-23 22:10:00,46.9,45.5,30.05,N/A,-32768,0.0,0.0,95,0.00,,,0.00,Wunderground v.1.12,2013-09-24 04:10:00,
2013-09-23 22:15:00,46.7,45.3,30.05,N/A,-32768,0.0,0.0,95,0.00,,,0.00,Wunderground v.1.12,2013-09-24 04:15:00,
2013-09-23 22:20:00,46.9,45.5,30.05,N/A,-32768,0.0,0.0,95,0.00,,,0.00,Wunderground v.1.12,2013-09-24 04:20:00,
2013-09-23 22:30:00,46.8,45.2,30.06,N/A,-32768,0.0,0.0,94,0.00,,,0.00,Wunderground v.1.12,2013-09-24 04:30:00,
2013-09-23 22:35:00,46.9,45.3,30.06,N/A,-32768,0.0,0.0,94,0.00,,,0.00,Wunderground v.1.12,2013-09-24 04:35:00,
2013-09-23 22:45:00,47.4,45.5,30.07,N/A,-32768,0.0,0.0,93,0.00,,,0.00,Wunderground v.1.12,2013-09-24 04:45:00,
2013-09-23 22:50:00,47.6,45.4,30.07,N/A,-32768,0.0,0.0,92,0.00,,,0.00,Wunderground v.1.12,2013-09-24 04:50:00,
2013-09-23 22:55:00,47.2,45.3,30.07,N/A,-32768,0.0,0.0,93,0.00,,,0.00,Wunderground v.1.12,2013-09-24 04:55:00,
2013-09-23 23:00:00,47.2,45.6,30.06,N/A,-32768,0.0,0.0,94,0.00,,,0.00,Wunderground v.1.12,2013-09-24 05:00:00,
2013-09-23 23:05:00,46.9,45.0,30.06,N/A,-32768,0.0,0.0,93,0.00,,,0.00,Wunderground v.1.12,2013-09-24 05:05:00,
2013-09-23 23:10:00,46.8,44.9,30.06,N/A,-32768,0.0,0.0,93,0.00,,,0.00,Wunderground v.1.12,2013-09-24 05:10:00,
2013-09-23 23:15:00,46.4,44.5,30.06,N/A,-32768,0.0,0.0,93,0.00,,,0.00,Wunderground v.1.12,2013-09-24 05:15:00,
2013-09-23 23:20:00,46.3,44.4,30.06,N/A,-32768,0.0,0.0,93,0.00,,,0.00,Wunderground v.1.12,2013-09-24 05:20:00,
2013-09-23 23:25:00,46.1,44.5,30.06,N/A,-32768,0.0,0.0,94,0.00,,,0.00,Wunderground v.1.12,2013-09-24 05:25:00,
2013-09-23 23:30:00,45.7,44.1,30.06,N/A,-32768,0.0,0.0,94,0.00,,,0.00,Wunderground v.1.12,2013-09-24 05:30:00,
2013-09-23 23:35:00,45.5,43.9,30.06,N/A,-32768,0.0,0.0,94,0.00,,,0.00,Wunderground v.1.12,2013-09-24 05:35:00,
2013-09-23 23:40:00,45.5,43.9,30.06,N/A,-32768,0.0,0.0,94,0.00,,,0.00,Wunderground v.1.12,2013-09-24 05:40:00,
2013-09-23 23:45:00,45.3,43.7,30.06,N/A,-32768,0.0,0.0,94,0.00,,,0.00,Wunderground v.1.12,2013-09-24 05:45:00,
2013-09-23 23:50:00,44.9,43.6,30.06,N/A,-32768,0.0,0.0,95,0.00,,,0.00,Wunderground v.1.12,2013-09-24 05:50:00,
2013-09-23 23:55:00,44.9,43.8,30.06,N/A,-32768,0.0,0.0,96,0.00,,,0.00,Wunderground v.1.12,2013-09-24 05:55:00,